Lexington Weather

Lexington, Massachusetts, USA

71°F
9/22/2021 2:17pm 
  • Lexington Conditions: Light rain, Mist, Overcast
  • Temperature: 71.4°F / 21.9°CColder 3.6°F than last hour.
  • Dew Point: 68.9°FIncreased 0.5°Fsince last hour.
  • Relative Humidity: 92%Increased 12.0% since last hour.
  • Wind: Wind from W W 2 mph, 10-min avg: 2 mph, gust: 8 mph
  • Barometer: 30.08 inFalling 0.02  inHg/hr Falling Slowly
  • Visibility: 2 miles
  • Rain Today: 0.00 in
  •   

Regional Weather Roundup
for Boston / Norton, MA

        
000
ASUS41 KBOX 152304
RWRBOX

REGIONAL WEATHER ROUNDUP
NATIONAL WEATHER SERVICE BOSTON/NORTON MA
700 PM EDT WED SEP 15 2021

NOTE:  "FAIR" INDICATES FEW OR NO CLOUDS BELOW 12,000 FEET WITH NO 
SIGNIFICANT WEATHER AND/OR OBSTRUCTIONS TO VISIBILITY.

MAZALL-160000-
EASTERN MASSACHUSETTS
  
CITY           SKY/WX    TMP DP  RH WIND       PRES   REMARKS
BOSTON         MOCLDY    79  68  69 S14       29.94R                  
BEVERLY        MOCLDY    81  66  60 SW13      29.92R                  
LAWRENCE       MOCLDY    81  69  67 SW10      29.94R                  
BEDFORD        PTCLDY    79  69  71 S9        29.92R                  
BLUE HILL      NOT AVBL                                               
NORWOOD        PTCLDY    77  69  76 S9        29.94R                  
MARSHFIELD     PTCLDY    75  70  83 SW10G22   29.96R                  
PLYMOUTH       PTCLDY    75  69  81 SW9       29.99R                  
TAUNTON        PTCLDY    75  69  81 SW13G21   29.98R                  
NEW BEDFORD    PTCLDY    74  70  87 SW10G18   29.98R                  
$$

MAZALL-160000-
CAPE COD AND THE ISLANDS
  
CITY           SKY/WX    TMP DP  RH WIND       PRES   REMARKS
FALMOUTH       CLEAR     75  70  83 SW17G25   30.00R                  
HYANNIS        PTCLDY    75  72  90 S15G22    29.99R                  
CHATHAM        CLOUDY    74  71  91 SW9G20    30.02R                  
PROVINCETOWN   PTCLDY    72  69  90 SW13      29.99R                  
NANTUCKET      PTCLDY    74  71  91 S15       30.03R                  
MARTHAS VNYRD  PTCLDY    73  72  96 S15       30.01R                  
$$
 
MAZALL-160000-
CENTRAL AND WESTERN MASSACHUSETTS
  
CITY           SKY/WX    TMP DP  RH WIND       PRES   REMARKS
WORCESTER      PTCLDY    76  67  73 SW10      29.98R                  
FITCHBURG      MOCLDY    75  62  64 NW9       29.96R                  
ORANGE         MOCLDY    70  67  90 CALM      29.98R                  
SPRINGFIELD    MOCLDY    80  69  69 W15G22    29.92R                  
WESTFIELD      MOCLDY    77  66  68 CALM      29.93R                  
NORTH ADAMS    LGT RAIN  68  66  93 CALM      29.99R FOG              
PITTSFIELD     RAIN      65  64  97 S5        30.01R FOG              
$$
 
RIZALL-160000-
RHODE ISLAND
  
CITY           SKY/WX    TMP DP  RH WIND       PRES   REMARKS
PROVIDENCE     MOCLDY    76  71  85 SW10      29.98R                  
NEWPORT        PTCLDY    72  70  93 S7        29.99R                  
BLOCK ISLAND   PTCLDY    72  68  87 SW15      30.00R                  
SMITHFIELD     PTCLDY    74  69  85 S7        29.99R                  
WESTERLY       PTCLDY    72  70  93 S13       29.99R                  
$$
 
CTZALL-160000-
CONNECTICUT
  
CITY           SKY/WX    TMP DP  RH WIND       PRES   REMARKS
BRADLEY INTL   MOCLDY    79  69  71 S13       29.93R                  
HARTFORD       MOCLDY    80  67  64 S9        29.94R                  
BRIDGEPORT     PTCLDY    78  71  79 S16G23    29.94R                  
DANBURY        PTCLDY    79  69  71 S7        29.96R                  
GROTON         PTCLDY    74  70  87 SW13      29.97R                  
NEW HAVEN      PTCLDY    78  72  81 S13       29.96R                  
CHESTER        FAIR      75  72  88 S8G16     29.98R                  
MERIDEN        PTCLDY    78  68  71 S10       29.96R                  
WILLIMANTIC    CLEAR     77  68  73 S8        29.97R                  
OXFORD         PTCLDY    75  69  81 S7        29.98R                  
$$

MEZ002-015-021-024-NHZ003-005-008-011-012-014-VTZ005-008-160000-
NORTHERN NEW ENGLAND
  
CITY           SKY/WX    TMP DP  RH WIND       PRES   REMARKS
PORTLAND ME    LGT RAIN  68  66  93 SW3       29.94R                  
BANGOR ME      TSTM      67  66  97 SW7       29.94R FOG              
CONCORD NH     CLOUDY    68  65  90 NW3       29.94R                  
MANCHESTER NH  LGT RAIN  72  64  76 SW6       29.93R                  
NASHUA NH      LGT RAIN  74  68  81 NW7       29.94R                  
PORTSMOUTH NH  TSTM      75  61  60 NW15      29.96R                  
JAFFREY NH     CLOUDY    67  67 100 CALM      29.99R                  
KEENE NH       CLOUDY    68  67  96 SW3       29.97R                  
BURLINGTON VT  RAIN      67  65  93 CALM      29.97R                  
MT. WASHINGTON LGT RAIN  46  46 100 W53G67      N/A  VSB 0            
$$

NYZ052-076-160000-
EASTERN NEW YORK
  
CITY           SKY/WX    TMP DP  RH WIND       PRES   REMARKS
ALBANY         CLOUDY    66  66 100 CALM      29.98S                  
NEW YORK CITY  MOCLDY    82  69  64 S9        29.93R                  
$$
 
ANZALL-160000-
MARINE OBSERVATIONS
  
STATION/POSITION TIME  TEMP    WIND        PRES    VSBY  WAVE
                       AIR SEA DIR/SP/G                  HT/PER
                 (UTC) (F)     (DEG/KT/KT) (MB)    (MI)  (FT/S)
BOSTON BUOY      2240      66  200/ 16/ 17 1013.8R
BUZZARDS BAY     2200          200/ 22/ 25 1015.6R
NANTUCKET SOUND  2240   74 72  200/ 17/ 21 1015.7R
MASS BAY-STELLWA 2204   70     200/ 14/ 16 1012.1R  1 7/8  3/ 5
ISLE OF SHOALS   2200   75     180/ 26/ 28 1011.0R
S OF BLOCK IS    2226      70                N/A           4/ 5
$$

......................KEY.........................
  SKY/WX - SKY CONDITION/PRESENT WEATHER
  TMP    - TEMPERATURE IN FAHRENHEIT
  DWPT   - DEWPOINT IN FAHRENHEIT
  RH     - RELATIVE HUMIDITY IN PERCENT
  WIND   - DIRECTION AND SPEED IN MPH
  PRES   - MEAN SEA LEVEL PRESSURE IN INCHES OF HG
  WCI    - WIND CHILL INDEX
  VSB    - VISIBILITY IN MILES
  HX     - HEAT INDEX
  TC     - TEMPERATURE IN CELSIUS
  VRB    - VARIABLE WIND DIRECTION
  N/A    - NOT AVAILABLE
  
      

Other recent Regional Weather Roundups

Wed Sep 22, 2:04pm

Wed Sep 22, 1:04pm

Wed Sep 22, 12:05pm

Wed Sep 22, 11:04am

Wed Sep 22, 10:04am

Wed Sep 22, 9:04am

Wed Sep 22, 8:04am

Wed Sep 22, 7:04am

Wed Sep 22, 6:04am

Wed Sep 22, 5:04am

Wed Sep 22, 4:04am

Wed Sep 22, 3:04am

Wed Sep 22, 2:04am

Wed Sep 22, 1:04am

Wed Sep 22, 12:04am

Tue Sep 21, 11:04pm

Tue Sep 21, 10:04pm

Tue Sep 21, 9:04pm

Tue Sep 21, 8:04pm

Tue Sep 21, 7:04pm

Tue Sep 21, 6:04pm

Tue Sep 21, 5:04pm

Tue Sep 21, 4:04pm

Tue Sep 21, 3:04pm

Tue Sep 21, 2:04pm

Tue Sep 21, 1:04pm

Tue Sep 21, 12:04pm

Tue Sep 21, 11:04am

Tue Sep 21, 10:04am

Tue Sep 21, 9:04am

Tue Sep 21, 8:04am

Tue Sep 21, 7:04am

Tue Sep 21, 6:04am

Tue Sep 21, 5:04am

Tue Sep 21, 4:04am

Tue Sep 21, 3:04am

Tue Sep 21, 2:04am

Tue Sep 21, 1:04am

Tue Sep 21, 12:04am

Mon Sep 20, 11:04pm

Mon Sep 20, 10:04pm

Mon Sep 20, 9:04pm

Mon Sep 20, 8:04pm

Mon Sep 20, 7:04pm

Mon Sep 20, 6:04pm

Mon Sep 20, 5:04pm

Mon Sep 20, 4:04pm

Mon Sep 20, 3:04pm

Mon Sep 20, 2:04pm

Mon Sep 20, 1:04pm

Mon Sep 20, 12:04pm

Mon Sep 20, 11:04am

Mon Sep 20, 10:04am

Mon Sep 20, 9:04am

Mon Sep 20, 7:04am

Mon Sep 20, 6:04am

Mon Sep 20, 5:04am

Mon Sep 20, 4:04am

Mon Sep 20, 3:04am

Mon Sep 20, 2:04am

Mon Sep 20, 1:04am

Mon Sep 20, 12:04am

Sun Sep 19, 11:04pm

Sun Sep 19, 10:04pm

Sun Sep 19, 9:04pm

Sun Sep 19, 8:04pm

Sun Sep 19, 7:04pm

Sun Sep 19, 6:04pm

Sun Sep 19, 5:04pm

Sun Sep 19, 4:04pm

Sun Sep 19, 3:04pm

Sun Sep 19, 2:05pm

Sun Sep 19, 1:04pm

Sun Sep 19, 12:04pm

Sun Sep 19, 11:04am

Sun Sep 19, 10:05am

Sun Sep 19, 9:04am

Sun Sep 19, 8:04am

Sun Sep 19, 7:04am

Sun Sep 19, 6:04am

Sun Sep 19, 5:04am

Sun Sep 19, 4:04am

Sun Sep 19, 3:04am

Sun Sep 19, 2:04am

Sun Sep 19, 1:04am

Sun Sep 19, 12:04am

Sat Sep 18, 11:05pm

Sat Sep 18, 10:04pm

Sat Sep 18, 9:04pm

Sat Sep 18, 8:04pm

Sat Sep 18, 7:04pm

Sat Sep 18, 6:04pm

Sat Sep 18, 5:04pm

Sat Sep 18, 4:04pm

Sat Sep 18, 3:04pm

Sat Sep 18, 2:04pm

Sat Sep 18, 1:04pm

Sat Sep 18, 12:04pm

Sat Sep 18, 11:04am

Sat Sep 18, 10:04am

Sat Sep 18, 9:04am

Sat Sep 18, 8:04am

Sat Sep 18, 7:04am

Sat Sep 18, 6:04am

Sat Sep 18, 5:04am

Sat Sep 18, 4:04am

Sat Sep 18, 3:04am

Sat Sep 18, 2:04am

Sat Sep 18, 1:04am

Sat Sep 18, 12:04am

Fri Sep 17, 11:04pm

Fri Sep 17, 10:04pm

Fri Sep 17, 9:04pm

Fri Sep 17, 8:04pm

Fri Sep 17, 7:04pm

Fri Sep 17, 6:04pm

Fri Sep 17, 5:04pm

Fri Sep 17, 4:04pm

Fri Sep 17, 3:04pm

Fri Sep 17, 2:04pm

Fri Sep 17, 1:04pm

Fri Sep 17, 12:05pm

Fri Sep 17, 11:04am

Fri Sep 17, 10:04am

Fri Sep 17, 9:04am

Fri Sep 17, 8:04am

Fri Sep 17, 7:04am

Fri Sep 17, 6:04am

Fri Sep 17, 5:04am

Fri Sep 17, 4:04am

Fri Sep 17, 3:04am

Fri Sep 17, 2:04am

Fri Sep 17, 1:04am

Fri Sep 17, 12:04am

Thu Sep 16, 11:04pm

Thu Sep 16, 10:04pm

Thu Sep 16, 9:04pm

Thu Sep 16, 8:04pm

Thu Sep 16, 7:04pm

Thu Sep 16, 6:04pm

Thu Sep 16, 5:04pm

Thu Sep 16, 4:04pm

Thu Sep 16, 3:04pm

Thu Sep 16, 2:04pm

Thu Sep 16, 1:05pm

Thu Sep 16, 12:04pm

Thu Sep 16, 11:05am

Thu Sep 16, 10:05am

Thu Sep 16, 9:04am

Thu Sep 16, 8:04am

Thu Sep 16, 7:04am

Thu Sep 16, 6:04am

Thu Sep 16, 5:04am

Thu Sep 16, 4:04am

Thu Sep 16, 3:04am

Thu Sep 16, 2:04am

Thu Sep 16, 1:04am

Thu Sep 16, 12:04am

Wed Sep 15, 11:04pm

Wed Sep 15, 10:04pm

Wed Sep 15, 9:04pm

Wed Sep 15, 8:04pm

Wed Sep 15, 6:04pm

Wed Sep 15, 5:05pm

Wed Sep 15, 4:04pm

Wed Sep 15, 3:04pm

Meta data:

ID: 23a3c113-4397-470b-aa00-898ac2f8567b
Link: https://api.weather.gov/products/23a3c113-4397-470b-aa00-898ac2f8567b